This is the latest recevied weather packets stored in our database for station/object SR5NLK-1. If no packets are shown the sender has not sent any weather packets the latest 1 day(s).
| Time | Temp. | Humidity | Pressure | Rain* | Wind** | Luminosity | Snow |
|---|---|---|---|---|---|---|---|
| 1777994552 | 30° C | 22% | 1039.7 hPa | 0 mm | 1.34 m/s, 180° | - | - |
| 1777994252 | 30° C | 22% | 962.3 hPa | 0 mm | 0.89 m/s, 135° | - | - |
| 1777993952 | 30.56° C | 22% | 994.7 hPa | 0 mm | 2.24 m/s, 112° | - | - |
| 1777993652 | 30.56° C | 22% | 1045.9 hPa | 0 mm | 4.92 m/s, 202° | - | - |
| 1777993390 | 30.56° C | 23% | 1042.8 hPa | 0 mm | 1.34 m/s, 225° | - | - |
| 1777993352 | 30.56° C | 23% | 1042.8 hPa | 0 mm | 1.34 m/s, 225° | - | - |
| 1777993052 | 30.56° C | 23% | 1106.6 hPa | 0 mm | 1.79 m/s, 157° | - | - |
| 1777992752 | 30.56° C | 22% | 959.2 hPa | 0 mm | 2.24 m/s, 202° | - | - |
| 1777992452 | 31.11° C | 22% | 1052.2 hPa | 0 mm | 0.89 m/s, 157° | - | - |
| 1777992152 | 31.67° C | 22% | 968.6 hPa | 0 mm | 3.58 m/s, 202° | - | - |
| 1777991853 | 32.22° C | 22% | 956 hPa | 0 mm | 0.89 m/s, 225° | - | - |
| 1777991552 | 32.22° C | 22% | 875.5 hPa | 0 mm | 1.79 m/s, 202° | - | - |
| 1777991313 | 32.78° C | 22% | 965.4 hPa | 0 mm | 3.13 m/s, 225° | - | - |
| 1777991255 | 32.78° C | 22% | 965.4 hPa | 0 mm | 3.13 m/s, 225° | - | - |
| 1777991072 | 32.78° C | 22% | 971.7 hPa | 0 mm | 4.47 m/s, 202° | - | - |
| 1777990959 | 32.78° C | 22% | 1013.5 hPa | 0 mm | 1.34 m/s, 202° | - | - |
| 1777990952 | 32.78° C | 22% | 1013.5 hPa | 0 mm | 1.34 m/s, 202° | - | - |
| 1777990653 | 32.78° C | 22% | 959.2 hPa | 0 mm | 1.79 m/s, 202° | - | - |
| 1777990352 | 32.22° C | 24% | 959.2 hPa | 0 mm | 1.79 m/s, 112° | - | - |
| 1777990059 | 31.11° C | 24% | - | 0 mm | 0 m/s | - | - |
| 1777990052 | 31.11° C | 24% | 1049.1 hPa | 0 mm | 0 m/s | - | - |
| 1777989752 | 30.56° C | 24% | 1045.9 hPa | 0 mm | 0.45 m/s, 157° | - | - |
| 1777989452 | 30° C | 23% | 1081.6 hPa | 0 mm | 0 m/s | - | - |
| 1777989152 | 30.56° C | 23% | 1036.5 hPa | 0 mm | 1.34 m/s, 270° | - | - |
| 1777989092 | 30.56° C | 24% | 1013.5 hPa | 0 mm | 0.45 m/s, 270° | - | - |
* Rain latest hour (hover to see other rain measurements)
** Current wind speed in m/s (hover to see current wind gust speed)